Cedar City Regional Airport Cedar City US
ICAO: KCDC
IATA: CDC
Category: Medium
Scheduled Services: Yes

Elevation: 5622 ft
TransAlt. 18000 ft.

Airport Communications:
ASOS:119.025
CTAF:123.6
RDO:122.2
UNICOM:122.95

KCDC Zoom In..

Runways:

(A) RW 02 length 8653 ft width 150 ft
---- / hdg 20

(B) RW 08 length 4822 ft width 60 ft
---- / hdg 83

(C) RW 20 length 8653 ft width 150 ft
ILS 110.10 / hdg 200

(D) RW 26 length 4822 ft width 60 ft
---- / hdg 263

Location; KCDC
Day. 23 / Time. 07.53 Zulu
* Altimeter: 30.28
* Temperature: 22° c. 71.6°f.
* Wind from: 190° Speed 04 kn.
Dewpoint: 11° c.
Visibility: 10 Statute Miles.
Clouds: Clear (automated report).

KCDC 230753Z AUTO 19004KT 10SM CLR 22/11 A3028 RMK AO2 SLP167 T02170111


Wind From 190°
Speed 04 kn.

 
 
jpsmedia.com for Web Design worldairports.se 2018   terms of use